Weather History for El Paso, TX

Change the Weather History Date:

Thursday, February 13, 2014

  Actual Average Record
Temperature  
Mean Temperature 59 °F 50 °F  
Max Temperature 76 °F 63 °F 79 °F (1957)
Min Temperature 41 °F 37 °F 11 °F (1963)
Degree Days  
Heating Degree Days 6 15  
Month to date heating degree days 189 215  
Since 1 July heating degree days 1745 1900  
Cooling Degree Days 0 0  
Month to date cooling degree days 0 0  
Year to date cooling degree days 0 0  
Growing Degree Days 8 (Base 50)    
Moisture  
Dew Point 16 °F    
Average Humidity 21    
Maximum Humidity 29    
Minimum Humidity 12    
Precipitation  
Precipitation 0.00 in 0.02 in 0.39 in (1951)
Month to date precipitation T 0.23  
Year to date precipitation T 0.63  
Snow  
Snow 0.00 in - - ()
Month to date snowfall 0.0  
Since 1 July snowfall T  
Snow Depth 0.00 in    
Sea Level Pressure  
Sea Level Pressure 29.90 in    
Wind  
Wind Speed 9 mph (West)    
Max Wind Speed 23 mph    
Max Gust Speed 30 mph    
Visibility 10 miles    
Events      
T = Trace of Precipitation, MM = Missing Value Source: NWS Daily Summary

Daily Weather History Graph

Daily Weather History Graph

Search for Another Location

Airport:

Trip Planner

Search our weather history database for the weather conditions in past years. The results will help you decide how hot, cold, wet, or windy it might be!

Date:

Astronomy

Feb. 13, 2014 Rise Set
Actual Time 6:49 AM MST 5:50 PM MST
Civil Twilight 6:24 AM MST 6:15 PM MST
Nautical Twilight 5:55 AM MST 6:44 PM MST
Astronomical Twilight 5:27 AM MST 7:12 PM MST
Moon 5:01 PM MST (2/13) 5:43 AM MST (2/13)
Length of Visible Light 11h 51m
Length of Day
11h 01m
Waxing Gibbous, 99% of the Moon is Illuminated
Feb 13
Waxing Gibbous
Feb 14
Full
Feb 22
Last Quarter
Mar 1
New
Mar 8
First Quarter

Hourly Weather History & Observations

Time (MST) Temp. Windchill Dew Point Humidity Pressure Visibility Wind Dir Wind Speed Gust Speed Precip Events Conditions
12:51 AM 54.0 °F - 14.0 °F 21% 29.93 in 10.0 mi SSE 8.1 mph - N/A   Scattered Clouds
1:51 AM 57.9 °F - 12.9 °F 17% 29.91 in 10.0 mi Calm Calm - N/A   Scattered Clouds
2:51 AM 54.0 °F - 12.9 °F 20% 29.91 in 10.0 mi SSW 11.5 mph - N/A   Partly Cloudy
3:51 AM 52.0 °F - 12.0 °F 20% 29.91 in 10.0 mi SSW 11.5 mph - N/A   Partly Cloudy
4:51 AM 45.0 °F 41.2 °F 12.0 °F 26% 29.93 in 10.0 mi SSE 6.9 mph - N/A   Partly Cloudy
5:51 AM 45.0 °F - 12.9 °F 27% 29.95 in 10.0 mi Calm Calm - N/A   Partly Cloudy
6:51 AM 43.0 °F 40.3 °F 12.9 °F 30% 29.99 in 10.0 mi SSE 4.6 mph - N/A   Scattered Clouds
7:51 AM 46.0 °F - 12.9 °F 26% 30.01 in 10.0 mi Calm Calm - N/A   Scattered Clouds
8:51 AM 51.1 °F - 14.0 °F 23% 30.01 in 10.0 mi Calm Calm - N/A   Mostly Cloudy
9:51 AM 60.1 °F - 16.0 °F 18% 29.99 in 10.0 mi NNW 4.6 mph - N/A   Mostly Cloudy
10:51 AM 66.9 °F - 19.9 °F 17% 29.98 in 10.0 mi NW 8.1 mph - N/A   Scattered Clouds
11:51 AM 71.1 °F - 19.9 °F 14% 29.95 in 10.0 mi North 8.1 mph - N/A   Scattered Clouds
12:51 PM 71.1 °F - 19.9 °F 14% 29.91 in 10.0 mi WNW 11.5 mph - N/A   Partly Cloudy
1:51 PM 73.0 °F - 19.9 °F 14% 29.85 in 10.0 mi West 9.2 mph 19.6 mph N/A   Partly Cloudy
2:51 PM 75.0 °F - 19.0 °F 12% 29.83 in 10.0 mi NW 16.1 mph 25.3 mph N/A   Partly Cloudy
3:51 PM 75.9 °F - 19.0 °F 12% 29.83 in 10.0 mi NW 11.5 mph 19.6 mph N/A   Partly Cloudy
4:51 PM 75.0 °F - 19.0 °F 12% 29.83 in 10.0 mi West 10.4 mph - N/A   Scattered Clouds
5:51 PM 72.0 °F - 18.0 °F 13% 29.85 in 10.0 mi West 10.4 mph - N/A   Scattered Clouds
6:51 PM 66.0 °F - 18.0 °F 16% 29.86 in 10.0 mi WSW 8.1 mph - N/A   Scattered Clouds
7:51 PM 68.0 °F - 18.0 °F 15% 29.87 in 10.0 mi WSW 12.7 mph - N/A   Scattered Clouds
8:51 PM 69.1 °F - 17.1 °F 14% 29.87 in 10.0 mi West 15.0 mph - N/A   Scattered Clouds
9:51 PM 69.1 °F - 17.1 °F 14% 29.84 in 10.0 mi West 20.7 mph 26.5 mph N/A   Scattered Clouds
10:51 PM 68.0 °F - 17.1 °F 14% 29.82 in 10.0 mi WNW 16.1 mph - N/A   Partly Cloudy
11:51 PM 66.9 °F - 17.1 °F 15% 29.82 in 10.0 mi West 12.7 mph - N/A   Partly Cloudy